Location: Hillern
(53.0557°N, 9.8577°E)
Time: 06:26:43
(UTC+00:00)

PSLV R/B - Pass Details

Date: 19 May 2025
Orbit: 586 x 683 km, 97.9° (Epoch: 14 June)

Event Time Altitude Azimuth Distance (km) Brightness Sun altitude
Rises 22:39:05 0° 18° (NNE) 2,853 8.1 -16.5°
Reaches altitude 10° 22:41:21 10° 25° (NNE) 1,937 6.9 -16.6°
Maximum altitude 22:45:22 44° 99° (E) 818 4.0 -16.6°
Enters shadow 22:46:52 31° 149° (SSE) 1,047 4.2 -16.7°
